Wind_Speed
10 9 9 7 5 5 4 3 2 2 2 1 1 0 1 1 1 3 4 4 3 3 4 4 3 3 2 1 3 3 3 7 10 13 15 22 22 22 25 30 34 37 42 46 47
10 9 9 7 6 5 4 4 4 4 4 4 4 4 4 4 4 4 4 3 5 5 4 2 1 1 2 3 4 5 7 10 13 16 20 24 29 30 31 34 38 43 46 49 52
11 11 9 9 9 7 6 5 5 5 6 6 7 7 7 7 7 5 3 4 4 4 2 1 2 3 4 4 5 8 9 14 19 22 22 24 32 34 33 35 44 48 52 54 56
13 12 12 13 12 9 9 9 8 8 8 8 8 8 7 5 5 3 3 4 3 2 2 3 4 6 7 7 9 11 15 18 21 26 30 32 33 33 36 44 50 53 56 59 61
13 14 15 13 12 11 11 11 11 10 9 8 7 6 6 4 3 3 3 3 2 3 4 4 7 6 8 9 12 14 19 23 26 28 32 35 36 37 42 49 53 56 57 60 64
14 14 15 13 12 12 12 11 11 10 8 7 6 5 4 4 3 3 3 3 5 6 8 8 8 7 10 12 15 18 21 25 28 30 33 38 39 40 48 53 54 56 60 63 66
14 15 14 13 13 11 12 12 12 9 7 6 6 5 6 6 5 4 4 5 6 8 8 8 9 11 14 17 20 24 28 26 28 33 32 40 42 47 53 55 56 59 63 65 68
15 14 13 13 13 13 13 14 14 11 10 9 8 7 7 5 6 5 5 6 5 5 7 9 13 17 19 23 26 27 31 39 37 34 41 43 50 51 53 55 56 61 65 70 78
16 14 13 14 17 17 16 16 14 14 14 11 11 9 6 6 6 4 4 4 7 9 12 15 18 21 23 26 31 34 35 35 41 38 43 46 51 54 55 55 60 65 73 79 83
16 15 15 17 21 23 22 21 20 19 18 15 11 10 8 6 6 6 6 8 10 13 15 18 19 22 25 27 30 32 32 32 39 41 48 51 51 53 56 61 66 72 79 80 68
17 15 15 17 21 21 22 24 23 24 23 20 18 13 11 11 9 7 8 11 13 15 16 19 23 25 28 29 31 32 35 37 39 44 48 51 52 58 59 64 70 77 81 69 50
17 17 15 14 17 19 20 22 22 22 23 23 21 17 16 14 13 12 14 15 16 18 21 21 24 27 29 33 35 36 38 38 40 47 49 52 55 60 61 69 76 82 75 51 35
17 15 13 12 12 15 17 18 19 22 22 23 23 23 19 19 17 16 16 17 17 19 22 24 26 29 31 34 37 39 39 39 42 45 46 53 59 61 68 76 77 77 58 38 32
18 15 13 12 11 12 13 15 16 18 20 21 22 20 22 19 18 18 18 19 20 22 24 25 29 30 32 34 35 38 37 38 38 42 48 56 61 70 71 74 69 67 43 30 33
19 15 11 10 7 8 10 11 13 14 19 18 18 17 17 17 18 18 20 24 27 29 32 32 33 34 35 35 32 30 31 33 37 45 54 58 62 66 73 72 68 51 33 28 33
20 16 13 8 5 4 6 8 10 11 14 14 14 15 16 16 16 19 23 25 29 31 33 36 36 36 34 31 29 29 31 32 39 48 56 57 59 65 73 74 62 40 28 31 34
22 18 15 10 6 5 2 3 7 8 8 10 11 13 15 15 16 19 23 27 30 35 40 40 38 38 36 33 31 32 32 37 45 51 51 56 64 72 75 67 52 36 27 29 35
23 20 16 14 11 10 6 2 3 5 6 7 8 11 13 15 16 19 22 25 30 34 39 44 43 44 40 37 37 38 39 41 47 49 54 63 66 70 72 56 37 25 25 29 33
25 22 19 16 14 13 9 7 6 5 4 4 7 10 13 15 18 20 22 24 27 34 39 44 42 42 39 36 36 36 39 43 46 52 57 61 67 72 70 45 31 20 23 26 35
24 22 19 17 15 13 12 11 8 6 5 6 7 10 12 15 18 20 23 25 28 34 39 43 45 46 42 37 35 36 40 46 48 51 56 60 67 70 70 49 26 18 19 25 36
23 21 19 17 15 13 12 11 10 9 8 7 8 10 14 16 18 22 24 27 29 34 38 43 47 45 39 37 37 38 42 46 48 52 56 61 69 75 69 46 23 18 23 29 35
24 22 19 17 14 12 10 9 10 10 10 10 10 12 15 17 19 22 24 28 30 33 38 44 47 44 40 37 39 40 43 46 47 51 55 62 70 75 56 36 20 19 21 27 32
25 24 20 17 14 12 10 8 9 10 12 13 13 14 16 17 19 21 24 28 31 33 38 43 47 47 43 42 40 42 44 45 46 50 56 62 68 75 54 31 19 17 19 24 29
28 25 22 19 17 14 12 11 10 10 13 14 15 16 17 18 19 21 24 28 31 34 37 42 46 46 42 40 41 42 42 43 46 50 54 63 68 72 63 38 15 14 18 24 34
29 26 23 22 19 17 15 14 12 12 13 14 15 16 17 18 19 20 23 27 31 34 37 40 43 42 38 39 39 41 43 44 47 49 57 62 68 73 72 45 17 15 18 21 28
32 28 25 24 21 19 17 15 14 14 15 15 15 16 17 18 19 20 22 26 30 33 36 40 41 39 37 38 40 42 43 44 48 51 55 61 66 74 74 53 21 15 15 21 26
35 31 28 26 24 21 19 17 16 15 15 16 16 16 17 18 19 20 22 25 29 33 36 39 41 39 38 39 40 43 44 46 48 50 54 60 66 73 73 55 28 12 17 20 25
Wind_Direction
92 82 64 51 39 31 36 40 52 71 86 112 97 158 225 280 328 333 341 353 28 59 78 101 109 127 130 198 247 265 276 296 309 321 321 312 310 312 318 319 319 314 312 308 305
94 71 49 30 28 40 59 53 57 63 60 63 56 58 61 78 85 77 69 59 74 86 94 97 118 283 229 240 274 314 338 317 318 316 320 314 316 318 319 319 314 309 305 305 305
89 67 42 34 51 62 74 73 69 66 66 74 71 78 84 94 98 89 75 85 96 83 71 16 301 272 269 277 303 325 332 322 316 313 321 316 315 315 313 315 311 306 301 303 302
90 66 48 47 63 73 77 79 79 83 86 88 91 95 89 93 86 80 104 106 77 33 330 315 310 304 303 307 334 324 323 318 315 315 313 313 311 308 316 313 311 308 305 301 299
92 68 54 48 69 74 77 79 78 83 88 93 92 98 102 66 64 58 62 51 10 319 315 325 309 304 323 326 324 315 317 316 313 311 311 310 309 308 313 311 310 305 303 301 301
96 73 57 46 67 76 76 78 81 85 84 84 85 82 69 74 57 55 26 9 340 331 327 325 328 324 318 312 308 306 306 310 311 310 311 306 304 309 310 310 309 308 308 307 305
99 78 61 48 61 73 76 75 72 74 83 79 74 57 60 60 50 15 356 352 344 341 334 326 320 313 308 307 309 310 310 309 307 303 303 302 307 316 315 314 313 312 312 310 310
106 85 68 59 64 68 76 76 74 74 79 76 70 64 56 46 42 13 4 359 335 319 312 303 313 316 315 313 310 313 312 311 314 316 312 312 317 319 316 316 316 318 316 317 319
110 94 80 71 73 72 81 81 78 76 78 75 70 61 50 45 44 20 348 321 320 318 318 316 321 317 316 314 314 312 316 318 314 318 311 313 319 321 320 320 323 321 321 325 323
120 107 93 85 85 82 81 81 78 75 70 65 62 54 40 24 21 3 346 329 328 330 332 333 327 322 320 317 313 313 310 311 311 315 316 319 321 320 322 326 326 323 326 329 326
132 119 107 95 90 84 81 77 74 69 62 57 52 48 46 41 40 26 14 7 0 354 346 334 331 327 319 313 310 310 312 314 314 316 316 320 326 324 330 329 328 332 332 332 335
140 130 116 103 94 88 83 78 72 64 60 56 53 49 44 39 40 36 27 16 5 357 351 343 329 321 318 316 314 316 315 316 316 317 323 325 323 329 335 335 337 333 336 336 340
150 142 128 115 99 90 85 80 73 68 64 62 58 54 53 52 48 44 35 27 16 5 351 348 339 325 320 316 314 315 316 318 322 323 326 326 328 338 340 339 336 338 335 337 334
161 154 139 122 108 90 81 75 71 66 64 61 58 59 60 61 52 46 38 26 19 10 359 348 341 331 327 324 324 322 323 325 325 327 329 336 339 345 340 341 336 338 333 335 332
170 165 157 139 122 97 83 71 67 58 58 55 56 58 59 56 52 46 39 31 18 9 3 358 350 344 340 335 331 332 331 330 331 335 338 345 344 340 341 344 335 340 332 333 339
184 178 172 163 150 124 93 68 56 56 58 49 44 44 43 45 45 37 28 19 15 13 9 5 357 352 349 344 341 340 335 337 339 344 345 345 342 347 344 340 338 345 337 338 343
196 193 196 208 226 200 152 88 43 37 45 38 31 24 21 25 24 18 14 11 6 2 4 8 3 358 353 348 347 342 339 343 348 349 345 343 348 349 343 341 339 348 339 343 347
203 207 213 229 232 214 222 253 329 353 20 23 9 5 7 9 5 1 357 359 358 359 2 4 4 2 356 352 351 348 349 349 348 349 348 350 350 350 345 343 337 340 338 350 351
214 217 225 230 217 221 233 255 287 310 326 354 348 352 357 357 358 355 351 353 353 355 360 3 4 3 358 355 353 349 350 350 351 353 352 351 350 351 347 343 332 341 347 353 356
213 217 215 215 218 226 238 251 272 277 281 308 329 346 350 351 353 354 351 353 352 353 358 359 3 2 358 356 354 352 353 353 355 353 352 351 348 352 349 351 342 347 350 358 6
210 212 213 217 224 229 235 245 254 259 262 283 309 333 342 343 346 349 348 349 353 353 357 356 359 360 358 356 355 357 355 356 355 353 350 349 350 354 351 352 351 350 358 3 3
210 213 213 216 218 224 234 244 249 252 261 276 295 316 331 337 339 343 345 346 349 351 354 355 357 358 358 360 358 359 357 357 354 353 350 351 355 356 352 348 347 359 358 8 358
213 216 216 217 220 227 236 247 255 256 262 276 292 307 320 330 332 339 342 344 346 351 354 356 354 356 359 0 2 0 360 355 355 353 352 354 358 356 358 350 345 360 357 359 1
216 220 222 223 226 231 239 251 262 270 274 281 291 302 314 324 328 337 340 342 344 350 354 355 353 358 0 2 3 3 359 355 355 354 354 357 357 355 1 360 345 347 3 358 1
217 222 226 229 232 237 242 250 263 275 281 285 293 300 308 317 323 334 337 340 342 348 352 355 355 360 2 2 6 3 359 356 357 356 357 356 358 360 2 2 351 356 4 2 3
214 219 225 233 236 241 245 251 259 270 282 289 292 300 306 312 319 328 334 338 342 345 348 353 355 1 3 4 6 5 0 357 357 359 356 357 359 1 1 0 356 342 354 9 1
218 220 225 232 239 242 246 250 257 270 279 289 295 299 305 310 315 325 331 337 340 342 345 352 354 358 3 5 8 5 1 359 357 358 356 357 357 3 358 1 357 345 358 11 4
Height
5896 5895 5894 5892 5891 5889 5889 5888 5888 5888 5888 5888 5889 5890 5890 5891 5891 5891 5891 5891 5890 5890 5889 5888 5888 5887 5886 5885 5883 5881 5880 5879 5878 5876 5874 5869 5867 5864 5859 5854 5849 5844 5837 5832 5827
5897 5896 5894 5893 5892 5890 5889 5889 5888 5888 5889 5889 5890 5890 5890 5891 5891 5891 5891 5890 5890 5890 5889 5889 5888 5887 5886 5884 5883 5882 5881 5878 5877 5875 5871 5866 5860 5858 5854 5850 5844 5839 5833 5826 5820
5899 5897 5895 5894 5892 5891 5891 5890 5890 5890 5890 5891 5891 5891 5891 5891 5892 5891 5891 5891 5891 5890 5890 5890 5888 5887 5885 5884 5882 5882 5880 5878 5875 5872 5869 5863 5857 5852 5848 5844 5838 5832 5826 5818 5809
5900 5899 5897 5895 5894 5893 5892 5891 5891 5892 5892 5892 5892 5892 5892 5893 5894 5893 5892 5892 5892 5891 5891 5890 5889 5888 5887 5885 5883 5881 5880 5876 5872 5867 5863 5858 5853 5847 5841 5835 5830 5824 5816 5807 5798
5901 5900 5899 5897 5895 5894 5894 5893 5893 5893 5893 5893 5893 5894 5894 5894 5895 5894 5894 5893 5893 5892 5892 5890 5890 5888 5886 5884 5883 5880 5875 5873 5869 5864 5858 5851 5847 5842 5837 5829 5823 5813 5805 5797 5788
5903 5902 5900 5899 5897 5896 5896 5896 5896 5895 5895 5895 5895 5895 5895 5896 5895 5895 5895 5894 5894 5894 5893 5891 5889 5888 5885 5883 5880 5875 5872 5869 5865 5859 5853 5845 5841 5838 5831 5823 5813 5803 5794 5784 5773
5904 5903 5902 5901 5899 5898 5898 5897 5897 5897 5896 5896 5896 5896 5896 5897 5896 5896 5895 5895 5894 5894 5893 5891 5889 5887 5884 5881 5876 5872 5868 5865 5860 5854 5849 5839 5838 5831 5820 5812 5803 5792 5782 5770 5759
5905 5905 5905 5903 5901 5900 5899 5899 5899 5898 5897 5896 5896 5896 5896 5896 5895 5895 5895 5895 5895 5893 5892 5890 5888 5886 5883 5878 5873 5869 5863 5854 5852 5847 5839 5834 5828 5823 5813 5803 5793 5783 5769 5756 5742
5906 5907 5907 5905 5903 5902 5901 5901 5901 5900 5898 5898 5898 5898 5898 5897 5897 5896 5896 5895 5894 5892 5891 5888 5887 5883 5879 5874 5869 5864 5858 5853 5843 5844 5834 5832 5822 5815 5803 5794 5783 5768 5754 5739 5718
5907 5908 5908 5907 5906 5905 5904 5903 5902 5901 5901 5900 5900 5900 5899 5899 5897 5897 5896 5895 5893 5891 5889 5887 5884 5880 5876 5871 5866 5860 5856 5852 5842 5837 5827 5822 5818 5806 5796 5784 5770 5755 5740 5719 5703
5908 5909 5910 5910 5908 5908 5907 5906 5907 5905 5903 5902 5901 5900 5899 5898 5897 5896 5895 5894 5892 5889 5888 5884 5881 5876 5872 5868 5863 5857 5852 5847 5839 5831 5823 5815 5808 5797 5787 5774 5759 5739 5725 5706 5692
5908 5910 5911 5911 5910 5910 5909 5909 5908 5908 5906 5904 5902 5901 5899 5899 5898 5897 5895 5894 5891 5888 5885 5884 5879 5874 5869 5863 5856 5853 5846 5841 5835 5824 5817 5808 5800 5790 5777 5762 5740 5725 5707 5697 5689
5908 5910 5911 5912 5912 5912 5911 5911 5910 5909 5908 5906 5905 5903 5902 5901 5899 5897 5896 5894 5892 5889 5884 5880 5875 5870 5865 5859 5853 5847 5841 5835 5828 5818 5813 5802 5791 5780 5763 5749 5732 5715 5700 5692 5687
5908 5910 5912 5912 5914 5913 5913 5912 5911 5910 5910 5910 5907 5907 5905 5903 5902 5900 5897 5896 5892 5889 5884 5880 5873 5868 5861 5854 5849 5840 5835 5829 5822 5815 5806 5795 5780 5764 5755 5741 5720 5708 5696 5689 5682
5907 5909 5911 5912 5914 5914 5914 5913 5913 5912 5910 5912 5910 5909 5907 5906 5904 5901 5898 5896 5892 5888 5884 5878 5870 5863 5856 5849 5844 5838 5831 5826 5819 5809 5797 5785 5771 5762 5745 5734 5714 5701 5692 5686 5679
5906 5908 5910 5912 5913 5914 5914 5914 5914 5914 5911 5912 5911 5910 5908 5906 5904 5901 5898 5896 5892 5888 5883 5876 5867 5860 5853 5847 5839 5834 5828 5823 5814 5804 5788 5780 5771 5755 5736 5722 5708 5698 5690 5682 5676
5904 5907 5909 5911 5913 5913 5914 5914 5915 5913 5914 5913 5912 5910 5909 5906 5904 5901 5898 5894 5891 5886 5879 5875 5866 5859 5851 5843 5837 5831 5826 5817 5807 5798 5788 5779 5763 5747 5730 5714 5698 5691 5686 5681 5673
5902 5905 5907 5910 5911 5912 5913 5914 5914 5913 5913 5912 5911 5910 5909 5907 5904 5901 5897 5893 5889 5884 5879 5871 5862 5855 5847 5840 5833 5824 5818 5812 5803 5796 5784 5766 5756 5745 5724 5706 5695 5691 5685 5679 5673
5900 5903 5905 5907 5909 5910 5912 5913 5912 5912 5912 5912 5911 5910 5909 5906 5904 5900 5896 5893 5888 5883 5877 5869 5862 5854 5847 5838 5831 5823 5817 5809 5801 5788 5777 5764 5755 5740 5720 5705 5695 5688 5683 5677 5671
5897 5900 5902 5904 5906 5908 5910 5910 5911 5911 5911 5911 5910 5910 5907 5905 5902 5899 5895 5891 5886 5881 5874 5868 5861 5853 5844 5837 5830 5823 5815 5805 5794 5785 5775 5766 5751 5736 5718 5704 5692 5687 5682 5675 5667
5894 5898 5900 5902 5904 5906 5907 5908 5908 5909 5909 5909 5908 5908 5906 5904 5901 5897 5893 5889 5884 5878 5872 5866 5858 5853 5845 5835 5827 5820 5811 5801 5792 5781 5771 5759 5744 5728 5709 5695 5690 5685 5676 5670 5665
5891 5895 5897 5900 5903 5903 5905 5906 5906 5906 5906 5906 5906 5906 5904 5902 5899 5896 5892 5887 5882 5877 5871 5864 5856 5849 5842 5835 5825 5816 5808 5799 5790 5781 5769 5757 5742 5724 5706 5697 5689 5683 5677 5668 5664
5888 5891 5895 5897 5900 5901 5902 5903 5904 5904 5904 5904 5904 5903 5902 5900 5898 5894 5890 5885 5880 5875 5869 5862 5854 5846 5839 5833 5825 5815 5807 5798 5789 5778 5766 5752 5741 5724 5709 5696 5688 5683 5677 5671 5665
5884 5888 5892 5894 5896 5898 5899 5900 5901 5901 5901 5901 5901 5901 5900 5898 5895 5892 5888 5883 5878 5873 5867 5861 5853 5845 5838 5831 5824 5815 5806 5796 5787 5777 5766 5751 5738 5726 5711 5697 5688 5681 5674 5669 5662
5879 5884 5887 5891 5893 5895 5896 5897 5898 5899 5899 5898 5898 5898 5897 5895 5892 5890 5886 5881 5877 5872 5866 5861 5854 5845 5838 5830 5823 5815 5805 5795 5786 5775 5762 5751 5736 5722 5705 5695 5686 5682 5677 5670 5664
5873 5878 5882 5886 5889 5891 5893 5894 5895 5896 5896 5896 5895 5895 5894 5892 5890 5887 5884 5880 5875 5870 5865 5859 5853 5845 5837 5831 5823 5813 5804 5794 5783 5772 5761 5748 5736 5718 5704 5694 5688 5679 5675 5669 5664
5868 5872 5877 5881 5884 5887 5889 5890 5891 5892 5893 5893 5892 5892 5890 5889 5887 5884 5881 5877 5873 5868 5863 5858 5851 5843 5836 5828 5821 5815 5804 5793 5782 5771 5761 5748 5734 5719 5707 5695 5686 5681 5674 5667 5663